Weather History for KNBT - December, 2012

Change the Weather History Date:

Saturday, December 8, 2012

  Actual Average (KMRH) Record (KMRH)
Temperature  
Mean Temperature 62 °F -  
Max Temperature 69 °F 61 °F 76 °F (1978)
Min Temperature 55 °F 39 °F 20 °F (1970)
Degree Days  
Heating Degree Days 3    
Growing Degree Days 12 (Base 50)    
Moisture  
Dew Point 60 °F    
Average Humidity 93    
Maximum Humidity 100    
Minimum Humidity 68    
Precipitation  
Precipitation 0.05 in - - ()
Sea Level Pressure  
Sea Level Pressure 30.00 in    
Wind  
Wind Speed 4 mph (SW)    
Max Wind Speed 12 mph    
Max Gust Speed -    
Visibility 4 miles    
Events Fog , Rain    
Averages and records for this station are not official NWS values.
T = Trace of Precipitation, MM = Missing Value Source: NWS Daily Summary

Daily Weather History Graph

Daily Weather History Graph

Search for Another Location

Airport or City:

Trip Planner

Search our weather history database for the weather conditions in past years. The results will help you decide how hot, cold, wet, or windy it might be!

Date:

Astronomy

Dec. 08, 2012 Rise Set
Actual Time 7:01 AM EST 4:54 PM EST
Civil Twilight 6:33 AM EST 5:22 PM EST
Nautical Twilight 6:02 AM EST 5:53 PM EST
Astronomical Twilight 5:31 AM EST 6:24 PM EST
Moon 1:34 AM EST (12/8) 1:14 PM EST (12/8)
Length of Visible Light 10h 48m
Length of Day
9h 52m
Waning Crescent, 28% of the Moon is Illuminated
Dec 8
Waning Crescent
Dec 13
New
Dec 20
First Quarter
Dec 28
Full
Jan 4
Last Quarter

Hourly Weather History & Observations

Time (EST) Temp. Dew Point Humidity Pressure Visibility Wind Dir Wind Speed Gust Speed Precip Events Conditions
12:56 AM 64.9 °F 63.0 °F 93% 29.99 in 10.0 mi SSE 4.6 mph - N/A   Overcast
1:37 AM 64.4 °F 62.6 °F 94% 29.97 in 8.0 mi South 4.6 mph - 0.03 in Rain Light Rain
1:56 AM 64.0 °F 63.0 °F 96% 29.98 in 7.0 mi Calm Calm - 0.04 in Rain Light Rain
2:22 AM 64.4 °F 62.6 °F 94% 29.96 in 1.5 mi Calm Calm - 0.00 in   Scattered Clouds
2:41 AM 62.6 °F 62.6 °F 100% 29.95 in 0.8 mi Calm Calm - 0.00 in   Mist
2:53 AM 62.6 °F 60.8 °F 94% 29.95 in 0.8 mi SSE 3.5 mph - 0.00 in   Mostly Cloudy
2:56 AM 62.1 °F 61.0 °F 96% 29.97 in 0.8 mi SSE 3.5 mph - 0.00 in   Mostly Cloudy
3:09 AM 62.6 °F 60.8 °F 94% 29.96 in 1.0 mi SSE 5.8 mph - N/A   Overcast
3:30 AM 62.6 °F 62.6 °F 100% 29.95 in 2.5 mi SSE 3.5 mph - N/A   Overcast
3:37 AM 62.6 °F 62.6 °F 100% 29.95 in 2.0 mi SSE 3.5 mph - N/A   Mostly Cloudy
3:49 AM 62.6 °F 62.6 °F 100% 29.95 in 1.5 mi Calm Calm - N/A   Scattered Clouds
3:56 AM 63.0 °F 62.1 °F 97% 29.96 in 0.8 mi Calm Calm - N/A   Mostly Cloudy
4:03 AM 62.6 °F 60.8 °F 94% 29.95 in 0.8 mi Calm Calm - N/A   Mostly Cloudy
4:46 AM 60.8 °F 60.8 °F 100% 29.95 in 0.5 mi WSW 5.8 mph - N/A Fog Fog
4:53 AM 60.8 °F 60.8 °F 100% 29.95 in 0.8 mi WSW 6.9 mph - N/A   Overcast
4:56 AM 62.1 °F 60.1 °F 93% 29.97 in 0.8 mi West 5.8 mph - N/A   Mist
5:05 AM 62.6 °F 60.8 °F 94% 29.95 in 0.5 mi West 4.6 mph - N/A Fog Fog
5:21 AM 62.6 °F 60.8 °F 94% 29.96 in 0.5 mi WSW 3.5 mph - N/A Fog Fog
5:37 AM 62.6 °F 62.6 °F 100% 29.96 in 0.5 mi SW 3.5 mph - N/A Fog Fog
5:46 AM 62.6 °F 60.8 °F 94% 29.96 in 0.5 mi SW 3.5 mph - N/A Fog Fog
5:56 AM 62.1 °F 61.0 °F 96% 29.98 in 0.5 mi WSW 3.5 mph - N/A Fog Fog
6:02 AM 62.6 °F 60.8 °F 94% 29.97 in 0.5 mi Calm Calm - N/A Fog Fog
6:16 AM 62.6 °F 60.8 °F 94% 29.97 in 0.8 mi Calm Calm - N/A   Overcast
6:22 AM 62.6 °F 60.8 °F 94% 29.98 in 0.8 mi West 3.5 mph - N/A   Overcast
6:31 AM 62.6 °F 60.8 °F 94% 29.98 in 1.0 mi West 3.5 mph - N/A   Overcast
6:40 AM 62.6 °F 60.8 °F 94% 29.98 in 3.0 mi West 4.6 mph - N/A   Overcast
6:52 AM 62.6 °F 62.6 °F 100% 29.98 in 4.0 mi West 6.9 mph - N/A   Overcast
6:56 AM 63.0 °F 62.1 °F 97% 29.99 in 4.0 mi West 6.9 mph - N/A   Overcast
7:53 AM 62.6 °F 62.6 °F 100% 30.00 in 9.0 mi West 8.1 mph - N/A   Overcast
7:56 AM 63.0 °F 62.1 °F 97% 30.01 in 9.0 mi West 8.1 mph - N/A   Overcast
8:56 AM 63.0 °F 62.1 °F 97% 30.03 in 10.0 mi West 8.1 mph - N/A   Overcast
9:07 AM 62.6 °F 62.6 °F 100% 30.02 in 10.0 mi West 6.9 mph - N/A   Overcast
9:18 AM 62.6 °F 60.8 °F 94% 30.02 in 10.0 mi West 8.1 mph - N/A   Overcast
9:56 AM 63.0 °F 61.0 °F 93% 30.04 in 10.0 mi West 10.4 mph - N/A   Overcast
10:34 AM 62.6 °F 60.8 °F 94% 30.03 in 10.0 mi West 9.2 mph - N/A   Overcast
10:56 AM 62.1 °F 60.1 °F 93% 30.04 in 10.0 mi West 9.2 mph - N/A   Overcast
11:56 AM 64.9 °F 60.1 °F 84% 30.02 in 10.0 mi WSW 8.1 mph - N/A   Scattered Clouds
12:56 PM 66.0 °F 59.0 °F 78% 30.00 in 10.0 mi WSW 9.2 mph - N/A   Clear
1:56 PM 66.9 °F 57.9 °F 73% 29.99 in 10.0 mi West 11.5 mph - N/A   Clear
2:56 PM 69.1 °F 57.9 °F 68% 30.00 in 10.0 mi West 9.2 mph - N/A   Clear
3:56 PM 66.9 °F 57.9 °F 73% 30.01 in 10.0 mi West 9.2 mph - N/A   Clear
4:56 PM 64.0 °F 57.9 °F 80% 30.03 in 10.0 mi SW 5.8 mph - N/A   Clear
5:56 PM 60.1 °F 57.0 °F 90% 30.04 in 10.0 mi South 6.9 mph - N/A   Clear
6:56 PM 57.9 °F 55.9 °F 93% 30.06 in 8.0 mi SW 8.1 mph - N/A   Clear
7:56 PM 57.9 °F 55.9 °F 93% 30.06 in 6.0 mi SSW 4.6 mph - N/A   Clear
8:56 PM 57.0 °F 55.0 °F 93% 30.08 in 5.0 mi SSW 5.8 mph - N/A   Clear
9:45 PM 55.4 °F 53.6 °F 94% 30.07 in 2.5 mi SW 4.6 mph - N/A   Clear
9:56 PM 57.0 °F 55.0 °F 93% 30.09 in 3.0 mi SW 6.9 mph - N/A   Clear
10:56 PM 55.9 °F 54.0 °F 93% 30.09 in 4.0 mi SSW 6.9 mph - N/A   Clear
11:27 PM 55.4 °F 55.4 °F 100% 30.08 in 2.5 mi SSW 4.6 mph - 0.01 in   Scattered Clouds
11:32 PM 55.4 °F 53.6 °F 94% 30.08 in 1.8 mi SW 4.6 mph - 0.01 in   Mostly Cloudy
11:41 PM 55.4 °F 53.6 °F 94% 30.08 in 0.5 mi WSW 4.6 mph - 0.01 in Fog Fog
11:56 PM 55.0 °F 54.0 °F 96% 30.10 in 0.5 mi SW 5.8 mph - 0.01 in Fog Fog